{"data":{"norad_id":40974,"intl_designator":"2015-058L","name":"BISONSAT","alt_names":[],"object_type":"PAYLOAD","status":"ACTIVE","operator":null,"country":"US","launch_date":"2015-10-08","launch_site_code":"AFWTR","launch_vehicle":null,"mission":null,"orbit_class":"UNKNOWN","rcs_meters":null,"size_class":null,"mass_kg":null,"dimensions":null,"purposes":["tech_demo"],"wikipedia_slug":null,"has_3d_model":false,"image_url":null,"decayed_at":null,"tle_current":{"epoch":"2026-05-25T00:13:56.224992Z","epoch_age_seconds":73587,"freshness":"FRESH","line1":"1 40974U 15058L   26145.00967853  .00009708  00000+0  47951-3 0  9991","line2":"2 40974  64.7596 248.5465 0078309  56.9380 303.9233 15.15663476112107","mean_motion":15.15663476,"eccentricity":0.0078309,"inclination_deg":64.7596,"raan_deg":248.5465,"arg_perigee_deg":56.938,"mean_anomaly_deg":303.9233,"bstar":0.00047951,"rev_number":11210,"period_min":95.007897386319,"perigee_km":464.95452212931,"apogee_km":572.97555483561,"semimajor_km":6897.1020384825,"source":"CELESTRAK","updated_at":"2026-05-25T13:38:25.527048Z"}}}